Date String (YYYY-MM-DD hh:mm:ss) UTC,Instrument flags,absolute air pressure of the measurement (hPa),sample flow rate (lpm),inlet stack bypass flow (lpm),air temperature of the measurement (°C),ambient temperature measured by the external sensor (°C),aerosol sample conditioner tube jacket temperature (°C),OPC LED temperature (°C),internal box temperature (°C),relative humidity of the measurement (%),span deviation,mass concentration of particles derived from Lorenz-Mie calculation of OPC scattering (μg/m³),mass concentration of particles derived from Lorenz-Mie calculation of OPC scattering (μg/m³),mass concentration of particles derived from Lorenz-Mie calculation of OPC scattering (μg/m³)
DateTimeUTC,F1_M11,P_M11,Q1_M11,Q2_M11,T1_M11,T2_M11,T3_M11,T4_M11,T5_M11,U1_M11,ZSPAN_M11,X2_M11,X0_M11,X1_M11
2023-10-19 18:00:00,SystemResetWarning,0835.3,5.00,000.00,028.5,027.1,000.0,036.9,030.3,16.1,0000.0,0003.27,0009.98,0001.81
2023-10-19 18:01:00,SystemResetWarning,0835.2,5.00,000.00,028.5,027.2,000.0,036.9,030.3,16.0,0000.0,0003.30,0009.86,0001.80
2023-10-19 18:02:00,SystemResetWarning,0835.2,5.01,000.00,028.5,027.4,000.0,036.9,030.4,16.0,0000.0,0003.29,0009.74,0001.82
2023-10-19 18:03:00,SystemResetWarning,0835.2,5.01,000.00,028.6,027.5,000.0,037.0,030.5,16.2,0000.0,0003.26,0009.08,0001.82
2023-10-19 18:04:00,SystemResetWarning,0835.2,4.98,000.00,028.6,026.4,000.0,036.9,030.4,16.2,0000.0,0003.25,0009.48,0001.83
2023-10-19 18:05:00,SystemResetWarning,0835.2,5.00,000.00,028.5,024.7,000.0,036.9,030.2,16.2,0000.0,0003.25,0009.73,0001.84
2023-10-19 18:06:00,SystemResetWarning,0835.2,5.01,000.00,028.5,024.6,000.0,036.8,030.1,16.2,0000.0,0003.21,0009.66,0001.82
2023-10-19 18:07:00,SystemResetWarning,0835.2,5.01,000.00,028.4,024.9,000.0,036.8,030.0,16.3,0000.0,0003.22,0009.60,0001.81
2023-10-19 18:08:00,SystemResetWarning,0835.1,5.00,000.00,028.3,025.2,000.0,036.8,029.9,16.2,0000.0,0003.24,0010.02,0001.82
2023-10-19 18:09:00,SystemResetWarning,0835.2,4.99,000.00,028.3,025.6,000.0,036.8,029.9,16.4,0000.0,0003.24,0009.86,0001.81
2023-10-19 18:10:00,SystemResetWarning,0835.1,5.00,000.00,028.3,026.0,000.0,036.8,030.0,16.4,0000.0,0003.22,0009.25,0001.78
2023-10-19 18:11:00,SystemResetWarning,0835.1,5.00,000.00,028.3,026.4,000.0,036.8,030.1,16.1,0000.0,0003.23,0009.05,0001.79
2023-10-19 18:12:00,SystemResetWarning,0835.1,5.00,000.00,028.4,026.6,000.0,036.8,030.2,16.1,0000.0,0003.21,0009.70,0001.78
2023-10-19 18:13:00,SystemResetWarning,0835.1,5.00,000.00,028.4,026.9,000.0,036.9,030.2,16.0,0000.0,0003.19,0010.29,0001.77
2023-10-19 18:14:00,SystemResetWarning,0835.1,5.01,000.00,028.4,027.1,000.0,036.9,030.3,16.0,0000.0,0003.22,0011.03,0001.76
2023-10-19 18:15:00,SystemResetWarning,0835.0,4.98,000.00,028.5,027.3,000.0,036.9,030.3,15.9,0000.0,0003.22,0010.57,0001.74
2023-10-19 18:16:00,SystemResetWarning,0835.1,4.99,000.00,028.5,027.4,000.0,036.9,030.4,15.9,0000.0,0003.21,0011.18,0001.72
2023-10-19 18:17:00,SystemResetWarning,0835.0,5.01,000.00,028.6,027.6,000.0,036.9,030.5,16.0,0000.0,0003.17,0011.33,0001.71
2023-10-19 18:18:00,SystemResetWarning,0835.0,5.00,000.00,028.6,027.1,000.0,036.9,030.5,16.1,0000.0,0003.13,0011.11,0001.70
2023-10-19 18:19:00,SystemResetWarning,0835.0,4.98,000.00,028.6,025.4,000.0,036.9,030.3,16.2,0000.0,0003.10,0010.79,0001.69
2023-10-19 18:20:00,SystemResetWarning,0835.0,5.02,000.00,028.5,024.5,000.0,036.8,030.1,16.3,0000.0,0003.05,0010.86,0001.67
2023-10-19 18:21:00,SystemResetWarning,0835.0,5.00,000.00,028.4,024.8,000.0,036.8,030.0,16.3,0000.0,0003.06,0010.94,0001.66
2023-10-19 18:22:00,SystemResetWarning,0835.0,5.00,000.00,028.4,025.1,000.0,036.8,029.9,16.4,0000.0,0003.01,0011.67,0001.63
2023-10-19 18:23:00,SystemResetWarning,0835.0,4.99,000.00,028.3,025.5,000.0,036.8,030.0,16.3,0000.0,0002.99,0011.66,0001.61
2023-10-19 18:24:00,SystemResetWarning,0835.0,5.00,000.00,028.3,025.9,000.0,036.8,030.0,16.4,0000.0,0003.02,0011.68,0001.60
2023-10-19 18:25:00,SystemResetWarning,0835.0,5.00,000.00,028.4,026.3,000.0,036.8,030.1,16.2,0000.0,0002.99,0010.75,0001.61
2023-10-19 18:26:00,SystemResetWarning,0834.9,5.00,000.00,028.4,026.6,000.0,036.8,030.1,16.3,0000.0,0002.93,0011.08,0001.59
2023-10-19 18:27:00,SystemResetWarning,0834.9,5.01,000.00,028.4,026.8,000.0,036.9,030.2,16.1,0000.0,0002.96,0010.38,0001.58
2023-10-19 18:28:00,SystemResetWarning,0834.9,5.00,000.00,028.4,027.1,000.0,036.9,030.3,16.0,0000.0,0002.99,0010.62,0001.58
2023-10-19 18:29:00,SystemResetWarning,0834.8,4.99,000.00,028.5,027.3,000.0,036.9,030.3,16.1,0000.0,0003.01,0011.00,0001.57
2023-10-19 18:30:00,SystemResetWarning,0835.0,4.99,000.00,028.5,027.4,000.0,036.9,030.4,16.1,0000.0,0003.06,0011.06,0001.58
2023-10-19 18:31:00,SystemResetWarning,0835.2,4.99,000.00,028.6,026.7,000.0,036.9,030.4,15.8,0000.0,0003.11,0011.25,0001.58
2023-10-19 18:32:00,SystemResetWarning,0835.1,5.00,000.00,028.5,024.9,000.0,036.8,030.2,16.0,0000.0,0003.06,0012.61,0001.57
2023-10-19 18:33:00,SystemResetWarning,0834.7,5.01,000.00,028.4,024.4,000.0,036.8,030.0,16.0,0000.0,0003.09,0013.11,0001.59
2023-10-19 18:34:00,SystemResetWarning,0834.8,5.01,000.00,028.4,024.7,000.0,036.8,029.9,16.1,0000.0,0003.05,0013.56,0001.60
2023-10-19 18:35:00,SystemResetWarning,0834.8,5.00,000.00,028.3,025.1,000.0,036.8,029.8,16.2,0000.0,0003.04,0013.56,0001.61
2023-10-19 18:36:00,SystemResetWarning,0834.7,5.00,000.00,028.3,025.5,000.0,036.8,029.9,16.3,0000.0,0002.96,0014.32,0001.59
2023-10-19 18:37:00,SystemResetWarning,0834.9,5.00,000.00,028.3,025.9,000.0,036.8,030.0,16.3,0000.0,0002.97,0014.82,0001.59
2023-10-19 18:38:00,SystemResetWarning,0834.8,5.00,000.00,028.3,026.2,000.0,036.8,030.0,16.2,0000.0,0002.92,0014.24,0001.58
2023-10-19 18:39:00,SystemResetWarning,0835.1,5.00,000.00,028.3,026.5,000.0,036.8,030.1,16.3,0000.0,0002.88,0014.01,0001.60
2023-10-19 18:40:00,SystemResetWarning,0835.1,4.99,000.00,028.4,026.8,000.0,036.8,030.2,16.2,0000.0,0002.89,0014.29,0001.59
2023-10-19 18:41:00,SystemResetWarning,0834.9,5.00,000.00,028.4,027.0,000.0,036.8,030.2,16.1,0000.0,0002.91,0014.97,0001.57
2023-10-19 18:42:00,SystemResetWarning,0834.7,5.00,000.00,028.4,027.2,000.0,036.8,030.3,15.9,0000.0,0002.88,0014.84,0001.57
2023-10-19 18:43:00,SystemResetWarning,0834.9,5.00,000.00,028.5,027.3,000.0,036.9,030.4,15.9,0000.0,0002.90,0013.90,0001.59
2023-10-19 18:44:00,SystemResetWarning,0834.6,4.99,000.00,028.5,026.2,000.0,036.8,030.3,15.9,0000.0,0002.88,0013.01,0001.60
2023-10-19 18:45:00,SystemResetWarning,0834.7,5.00,000.00,028.4,024.5,000.0,036.8,030.1,16.1,0000.0,0002.86,0013.09,0001.60
2023-10-19 18:46:00,SystemResetWarning,0835.1,5.01,000.00,028.4,024.3,000.0,036.7,030.0,16.6,0000.0,0002.90,0012.22,0001.62
2023-10-19 18:47:00,SystemResetWarning,0834.9,5.01,000.00,028.3,024.6,000.0,036.7,029.8,16.4,0000.0,0002.96,0011.53,0001.62
2023-10-19 18:48:00,SystemResetWarning,0834.5,4.99,000.00,028.2,025.0,000.0,036.7,029.8,16.1,0000.0,0002.92,0010.98,0001.63
2023-10-19 18:49:00,SystemResetWarning,0834.6,5.00,000.00,028.2,025.5,000.0,036.7,029.8,16.1,0000.0,0002.94,0011.52,0001.62
2023-10-19 18:50:00,SystemResetWarning,0834.5,5.01,000.00,028.2,025.9,000.0,036.7,029.9,16.4,0000.0,0003.03,0011.75,0001.62
2023-10-19 18:51:00,SystemResetWarning,0834.6,5.00,000.00,028.2,026.3,000.0,036.7,030.0,16.4,0000.0,0003.03,0011.39,0001.63
2023-10-19 18:52:00,SystemResetWarning,0834.6,5.00,000.00,028.3,026.6,000.0,036.7,030.0,16.5,0000.0,0002.96,0011.89,0001.64
2023-10-19 18:53:00,SystemResetWarning,0834.5,4.99,000.00,028.3,026.8,000.0,036.8,030.1,16.3,0000.0,0002.90,0012.07,0001.63
2023-10-19 18:54:00,SystemResetWarning,0834.5,4.99,000.00,028.4,027.0,000.0,036.8,030.2,15.9,0000.0,0002.89,0012.36,0001.62
2023-10-19 18:55:00,SystemResetWarning,0834.5,5.02,000.00,028.4,027.2,000.0,036.8,030.3,15.9,0000.0,0002.93,0012.25,0001.61
2023-10-19 18:56:00,SystemResetWarning,0834.5,5.00,000.00,028.4,027.4,000.0,036.8,030.3,15.8,0000.0,0002.89,0011.17,0001.60
2023-10-19 18:57:00,SystemResetWarning,0834.7,5.00,000.00,028.5,026.9,000.0,036.8,030.3,16.2,0000.0,0002.87,0011.16,0001.59
2023-10-19 18:58:00,SystemResetWarning,0834.5,4.99,000.00,028.4,025.1,000.0,036.8,030.1,16.2,0000.0,0002.86,0011.47,0001.58
2023-10-19 18:59:00,SystemResetWarning,0834.5,5.00,000.00,028.4,024.3,000.0,036.7,030.0,16.3,0000.0,0002.86,0011.22,0001.58
